Jersey, United Kingdom

10:08 AM BST on May 27, 2017 (GMT +0100)
Jersey

Weather History for EGJJ - December, 2011

Change the Weather History Date:

Monday, December 5, 2011

  Actual Average Record
Temperature  
Mean Temperature 46 °F -  
Max Temperature 48 °F 46 °F 57 °F (2001)
Min Temperature 44 °F 40 °F 35 °F (1997)
Degree Days  
Heating Degree Days 19    
Moisture  
Dew Point 38 °F    
Average Humidity 71    
Maximum Humidity 81    
Minimum Humidity 58    
Precipitation  
Precipitation 0.00 in - - ()
Sea Level Pressure  
Sea Level Pressure 29.88 in    
Wind  
Wind Speed 20 mph ()    
Max Wind Speed 29 mph    
Max Gust Speed 37 mph    
Visibility 6.6 miles    
Events Rain , Hail    
Averages and records for this station are not official NWS values.
T = Trace of Precipitation, MM = Missing Value Source: Averaged Metar Reports

Daily Weather History Graph

Daily Weather History Graph

Search for Another Location

Airport or City:

Trip Planner

Search our weather history database for the weather conditions in past years. The results will help you decide how hot, cold, wet, or windy it might be!

Date:

Astronomy

Dec. 05, 2011 Rise Set
Actual Time 7:46 AM GMT 4:11 PM GMT
Civil Twilight 7:09 AM GMT 4:48 PM GMT
Nautical Twilight 6:29 AM GMT 5:28 PM GMT
Astronomical Twilight 5:51 AM GMT 6:07 PM GMT
Moon 1:19 PM GMT (12/5) 2:35 AM GMT (12/5)
Length of Visible Light 9h 38m
Length of Day
8h 24m
Waxing Gibbous, 78% of the Moon is Illuminated
Dec 5
Waxing Gibbous
Dec 10
Full
Dec 18
Last Quarter
Dec 24
New
Jan 1
First Quarter

Hourly Weather History & Observations

Time (GMT) Temp. Windchill Dew Point Humidity Pressure Visibility Wind Dir Wind Speed Gust Speed Precip Events Conditions
12:00 AM 48 °F - 38 °F 58% 29.78 in 25 mi NW 23.0 mph - -   Partly Cloudy
3:00 AM 46 °F - 37 °F 61% 29.84 in 25 mi NW 21.9 mph - - Rain Light Rain Showers
3:50 AM 46.4 °F 38.5 °F 37.4 °F 71% 29.83 in 6.2 mi NNW 21.9 mph - N/A   Mostly Cloudy
4:20 AM 44.6 °F 37.2 °F 35.6 °F 71% 29.83 in 6.2 mi NW 17.3 mph - N/A   Partly Cloudy
4:50 AM 44.6 °F 35.9 °F 35.6 °F 71% 29.83 in 6.2 mi NW 23.0 mph - N/A   Partly Cloudy
5:20 AM 46.4 °F 38.7 °F 35.6 °F 66% 29.83 in 6.2 mi NW 20.7 mph - N/A   Scattered Clouds
5:50 AM 46.4 °F 39.5 °F 37.4 °F 71% 29.86 in 6.2 mi West 17.3 mph - N/A   Partly Cloudy
6:00 AM 46 °F - 38 °F 67% 29.88 in 22 mi WNW 25.3 mph - - Rain Light Rain Showers
6:20 AM 46.4 °F 37.9 °F 35.6 °F 66% 29.86 in 6.2 mi WNW 25.3 mph - N/A   Partly Cloudy
6:50 AM 46.4 °F 38.5 °F 35.6 °F 66% 29.89 in 6.2 mi NW 21.9 mph - N/A   Scattered Clouds
7:20 AM 46.4 °F 38.1 °F 35.6 °F 66% 29.89 in 6.2 mi WNW 24.2 mph - N/A   Partly Cloudy
7:50 AM 46.4 °F 38.3 °F 33.8 °F 62% 29.89 in 6.2 mi WNW 23.0 mph - N/A Rain Light Rain Showers
8:20 AM 46.4 °F 39.0 °F 37.4 °F 71% 29.89 in 6.2 mi West 19.6 mph - N/A   Scattered Clouds
8:50 AM 48.2 °F - 37.4 °F 66% 29.89 in 6.2 mi NW 19.6 mph 34.5 mph N/A   Light Small Hail Showers
9:00 AM 48 °F - 38 °F 58% 29.92 in 9 mi WNW 17.3 mph - - Hail Light Small Hail Showers
9:20 AM 46.4 °F 38.5 °F 37.4 °F 71% 29.92 in 6.2 mi WNW 21.9 mph - N/A   Partly Cloudy
9:50 AM 48.2 °F - 35.6 °F 62% 29.92 in 6.2 mi WNW 21.9 mph - N/A   Partly Cloudy
10:20 AM 48.2 °F - 39.2 °F 71% 29.92 in 6.2 mi West 24.2 mph - N/A   Partly Cloudy
10:50 AM 48.2 °F - 39.2 °F 71% 29.92 in 6.2 mi West 21.9 mph - N/A Rain Light Rain Showers
11:20 AM 48.2 °F - 39.2 °F 71% 29.92 in 6.2 mi WNW 20.7 mph - N/A   Scattered Clouds
11:50 AM 46.4 °F 37.4 °F 39.2 °F 76% 29.92 in 6.2 mi West 28.8 mph - N/A   Partly Cloudy
12:00 PM 45 °F - 39 °F 71% 29.94 in 19 mi WNW 20.7 mph - - Rain Light Rain Showers
12:20 PM 46.4 °F 39.0 °F 41.0 °F 81% 29.92 in 6.2 mi West 19.6 mph - N/A   Scattered Clouds
12:50 PM 48.2 °F - 39.2 °F 71% 29.89 in 6.2 mi WNW 21.9 mph - N/A   Mostly Cloudy
1:20 PM 44.6 °F 34.9 °F 39.2 °F 81% 29.89 in 6.2 mi West 28.8 mph - N/A Rain Rain Showers
1:50 PM 46.4 °F 37.9 °F 41.0 °F 81% 29.89 in 6.2 mi West 25.3 mph - N/A   Scattered Clouds
2:20 PM 46.4 °F 39.2 °F 41.0 °F 81% 29.89 in 6.2 mi WNW 18.4 mph 32.2 mph N/A Rain Light Rain Showers
2:50 PM 46.4 °F 37.4 °F 39.2 °F 76% 29.89 in 6.2 mi WNW 28.8 mph - N/A   Scattered Clouds
3:00 PM 47 °F - 40 °F 68% 29.90 in 7 mi WNW 19.6 mph - - Hail Light Hail Showers
3:20 PM 44.6 °F 36.1 °F 39.2 °F 81% 29.89 in 6.2 mi WNW 21.9 mph 36.8 mph N/A Rain Light Rain Showers
3:50 PM 46.4 °F 38.1 °F 41.0 °F 81% 29.86 in 6.2 mi WNW 24.2 mph - N/A Rain Rain Showers
4:20 PM 46.4 °F 37.9 °F 39.2 °F 76% 29.89 in 6.2 mi WNW 25.3 mph - N/A   Partly Cloudy
4:50 PM 46.4 °F 38.3 °F 41.0 °F 81% 29.86 in 6.2 mi NW 23.0 mph - N/A Rain Light Rain Showers
5:20 PM 46.4 °F 38.5 °F 39.2 °F 76% 29.86 in 6.2 mi WNW 21.9 mph - N/A   Scattered Clouds
5:50 PM 46.4 °F 38.5 °F 39.2 °F 76% 29.86 in 6.2 mi WNW 21.9 mph - N/A   Scattered Clouds
6:00 PM 47 °F - 38 °F 63% 29.89 in 28 mi WNW 21.9 mph - - Rain Light Rain Showers
6:20 PM 48.2 °F - 39.2 °F 71% 29.86 in 6.2 mi WNW 20.7 mph - N/A   Scattered Clouds
6:50 PM 48.2 °F - 39.2 °F 71% 29.86 in 6.2 mi WNW 19.6 mph - N/A   Partly Cloudy
7:20 PM 46.4 °F 38.5 °F 39.2 °F 76% 29.86 in 6.2 mi West 21.9 mph - N/A Rain Light Rain Showers
7:50 PM 46.4 °F 39.2 °F 39.2 °F 76% 29.89 in 6.2 mi NW 18.4 mph - N/A Rain Light Rain Showers
8:20 PM 48.2 °F - 39.2 °F 71% 29.86 in 6.2 mi WNW 18.4 mph - N/A   Scattered Clouds
8:50 PM 46.4 °F 40.1 °F 39.2 °F 76% 29.86 in 6.2 mi WNW 15.0 mph - N/A   Partly Cloudy
9:00 PM 47 °F - 39 °F 67% 29.90 in 25 mi WNW 16.1 mph - - Rain Light Rain Showers